| time (UTC) | temp F | wind direction | speed MPH | gust MPH | rain 1hr in | rain 24hr in | rain mn in | humidity % | barometer mb |
| 20260903213230 | 64 | 31 | 0.0 | 0.0 | 0.00 | 0.11 | 0.11 | 95 | 1011.4 |
| 20260903212725 | 64 | 31 | 0.0 | 0.0 | 0.00 | 0.11 | 0.11 | 95 | 1011.4 |
| 20260903212219 | 64 | 31 | 0.0 | 0.0 | 0.00 | 0.11 | 0.11 | 95 | 1011.5 |
| 20260903211941 | 64 | 31 | 0.0 | 0.0 | 0.00 | 0.11 | 0.11 | 95 | 1011.5 |
| 20260903211207 | 63 | 31 | 0.0 | 0.0 | 0.00 | 0.11 | 0.11 | 95 | 1011.5 |
| 20260903210700 | 63 | 31 | 0.0 | 0.0 | 0.00 | 0.11 | 0.11 | 95 | 1011.5 |
| 20260903210425 | 63 | 31 | 0.0 | 0.0 | 0.00 | 0.11 | 0.11 | 95 | 1011.3 |
| 20260903205648 | 64 | 31 | 0.0 | 0.0 | 0.00 | 0.11 | 0.11 | 95 | 1011.3 |
| 20260903205143 | 64 | 31 | 0.0 | 0.0 | 0.00 | 0.11 | 0.11 | 95 | 1011.3 |
| 20260903204637 | 63 | 31 | 0.0 | 0.0 | 0.00 | 0.11 | 0.11 | 95 | 1011.5 |
| 20260903204129 | 63 | 31 | 0.0 | 0.0 | 0.00 | 0.11 | 0.11 | 95 | 1011.7 |
| 20260903203851 | 63 | 31 | 0.0 | 0.0 | 0.00 | 0.11 | 0.11 | 95 | 1011.6 |
| 20260903203129 | 63 | 30 | 0.0 | 0.0 | 0.00 | 0.11 | 0.11 | 95 | 1011.7 |
| 20260903202628 | 63 | 31 | 0.0 | 0.0 | 0.00 | 0.11 | 0.11 | 95 | 1011.7 |
| 20260903202127 | 63 | 31 | 0.0 | 0.0 | 0.00 | 0.11 | 0.11 | 95 | 1011.7 |
| 20260903201625 | 63 | 30 | 0.0 | 0.0 | 0.00 | 0.11 | 0.11 | 95 | 1011.7 |
| 20260903201125 | 63 | 30 | 0.0 | 0.0 | 0.00 | 0.11 | 0.11 | 95 | 1011.6 |
| 20260903200624 | 63 | 30 | 0.0 | 0.0 | 0.00 | 0.11 | 0.11 | 95 | 1011.7 |
| 20260903200121 | 63 | 30 | 0.0 | 0.0 | 0.00 | 0.11 | 0.11 | 95 | 1011.7 |
| 20260903195621 | 64 | 29 | 0.0 | 0.0 | 0.00 | 0.11 | 0.11 | 95 | 1011.7 |
| 20260903195121 | 64 | 29 | 0.0 | 0.0 | 0.00 | 0.11 | 0.11 | 95 | 1011.7 |
| 20260903194621 | 64 | 29 | 0.0 | 0.0 | 0.00 | 0.11 | 0.11 | 95 | 1011.8 |
| 20260903194121 | 63 | 29 | 0.0 | 0.0 | 0.00 | 0.11 | 0.11 | 95 | 1011.8 |
| 20260903193619 | 63 | 29 | 0.0 | 0.0 | 0.00 | 0.11 | 0.11 | 95 | 1011.8 |
| 20260903193117 | 64 | 28 | 0.0 | 0.0 | 0.00 | 0.11 | 0.11 | 95 | 1011.9 |
| 20260903192617 | 63 | 30 | 0.0 | 0.0 | 0.00 | 0.11 | 0.11 | 95 | 1012.0 |
| 20260903192117 | 63 | 30 | 0.0 | 0.0 | 0.00 | 0.11 | 0.11 | 95 | 1012.1 |
| 20260903191615 | 63 | 30 | 0.0 | 1.0 | 0.00 | 0.11 | 0.11 | 95 | 1012.1 |
| 20260903191113 | 63 | 30 | 0.0 | 1.0 | 0.00 | 0.11 | 0.11 | 95 | 1012.1 |
| 20260903190613 | 63 | 30 | 0.0 | 0.0 | 0.00 | 0.11 | 0.11 | 95 | 1012.3 |
| 20260903190107 | 63 | 30 | 0.0 | 0.0 | 0.00 | 0.11 | 0.11 | 95 | 1012.3 |
| 20260903185601 | 63 | 30 | 0.0 | 0.0 | 0.00 | 0.11 | 0.11 | 95 | 1012.4 |
| 20260903185054 | 63 | 30 | 0.0 | 0.0 | 0.00 | 0.11 | 0.11 | 95 | 1012.4 |
| 20260903184549 | 64 | 30 | 0.0 | 2.0 | 0.00 | 0.11 | 0.11 | 95 | 1012.4 |
| 20260903184042 | 64 | 27 | 0.0 | 2.0 | 0.00 | 0.11 | 0.11 | 95 | 1012.5 |
| 20260903183536 | 64 | 32 | 0.0 | 0.0 | 0.00 | 0.11 | 0.11 | 94 | 1012.7 |
| 20260903183030 | 64 | 32 | 0.0 | 2.0 | 0.00 | 0.11 | 0.11 | 95 | 1012.8 |
| 20260903182524 | 64 | 32 | 0.0 | 2.0 | 0.00 | 0.11 | 0.11 | 94 | 1012.7 |
| 20260903182018 | 64 | 56 | 0.0 | 0.0 | 0.00 | 0.11 | 0.11 | 94 | 1012.7 |
| 20260903181512 | 64 | 56 | 0.0 | 0.0 | 0.00 | 0.11 | 0.11 | 94 | 1012.7 |
| 20260903181007 | 64 | 57 | 0.0 | 0.0 | 0.00 | 0.11 | 0.11 | 94 | 1012.8 |
| 20260903180459 | 64 | 57 | 0.0 | 0.0 | 0.00 | 0.11 | 0.11 | 94 | 1012.8 |
| 20260903175953 | 64 | 57 | 0.0 | 0.0 | 0.00 | 0.11 | 0.11 | 94 | 1012.8 |
| 20260903175446 | 64 | 57 | 0.0 | 0.0 | 0.00 | 0.11 | 0.11 | 94 | 1012.7 |
| 20260903175203 | 64 | 57 | 0.0 | 0.0 | 0.00 | 0.11 | 0.11 | 94 | 1012.7 |
| 20260903174436 | 64 | 57 | 0.0 | 3.0 | 0.00 | 0.11 | 0.11 | 94 | 1012.8 |
| 20260903173929 | 64 | 57 | 0.0 | 3.0 | 0.00 | 0.11 | 0.11 | 94 | 1012.6 |
| 20260903173423 | 64 | 178 | 0.0 | 0.0 | 0.00 | 0.11 | 0.11 | 94 | 1012.5 |
| 20260903172916 | 64 | 178 | 0.0 | 0.0 | 0.00 | 0.11 | 0.11 | 94 | 1012.9 |
| 20260903172410 | 64 | 178 | 0.0 | 3.0 | 0.00 | 0.11 | 0.11 | 94 | 1013.0 |
| 20260903171904 | 64 | 186 | 0.0 | 3.0 | 0.00 | 0.11 | 0.11 | 94 | 1013.0 |
| 20260903171358 | 64 | 115 | 0.0 | 0.0 | 0.00 | 0.11 | 0.11 | 94 | 1012.8 |
| 20260903170853 | 64 | 115 | 0.0 | 0.0 | 0.00 | 0.11 | 0.11 | 95 | 1012.8 |
| 20260903170347 | 64 | 115 | 0.0 | 3.0 | 0.00 | 0.11 | 0.11 | 95 | 1012.8 |
| 20260903165840 | 64 | 115 | 0.0 | 3.0 | 0.00 | 0.11 | 0.11 | 95 | 1012.8 |
| 20260903165334 | 64 | 109 | 0.0 | 3.0 | 0.00 | 0.11 | 0.11 | 95 | 1012.8 |
| 20260903164837 | 64 | 109 | 0.0 | 4.0 | 0.00 | 0.11 | 0.11 | 95 | 1012.8 |
| 20260903164335 | 64 | 172 | 0.0 | 4.0 | 0.00 | 0.11 | 0.11 | 95 | 1012.9 |
| 20260903163835 | 64 | 123 | 0.0 | 1.0 | 0.00 | 0.11 | 0.11 | 95 | 1013.2 |
| 20260903163335 | 64 | 121 | 0.0 | 2.0 | 0.00 | 0.11 | 0.11 | 95 | 1013.2 |
| 20260903163052 | 64 | 120 | 0.0 | 2.0 | 0.00 | 0.11 | 0.11 | 95 | 1012.9 |
| 20260903162333 | 64 | 121 | 0.0 | 0.0 | 0.00 | 0.11 | 0.11 | 95 | 1013.0 |
| 20260903162057 | 64 | 138 | 0.0 | 0.0 | 0.00 | 0.11 | 0.11 | 95 | 1013.2 |
| 20260903161331 | 64 | 138 | 0.0 | 0.0 | 0.00 | 0.11 | 0.11 | 95 | 1013.2 |
| 20260903160829 | 64 | 138 | 0.0 | 2.0 | 0.00 | 0.11 | 0.11 | 95 | 1013.1 |
| 20260903160547 | 64 | 146 | 0.0 | 4.0 | 0.00 | 0.11 | 0.11 | 95 | 1013.3 |
| 20260903155829 | 64 | 142 | 0.0 | 5.0 | 0.00 | 0.11 | 0.11 | 95 | 1013.3 |
| 20260903155329 | 64 | 164 | 1.0 | 5.0 | 0.00 | 0.11 | 0.11 | 95 | 1013.3 |
| 20260903154826 | 64 | 142 | 1.0 | 11.0 | 0.00 | 0.11 | 0.11 | 95 | 1013.4 |
| 20260903154327 | 64 | 153 | 2.0 | 11.0 | 0.00 | 0.11 | 0.11 | 95 | 1013.5 |
| 20260903153824 | 64 | 148 | 1.0 | 9.0 | 0.00 | 0.11 | 0.11 | 95 | 1013.5 |
| 20260903153325 | 64 | 186 | 0.0 | 8.0 | 0.00 | 0.11 | 0.11 | 96 | 1013.7 |
| 20260903152823 | 64 | 180 | 0.0 | 4.0 | 0.00 | 0.11 | 0.11 | 96 | 1013.7 |
| 20260903152321 | 63 | 157 | 1.0 | 8.0 | 0.00 | 0.11 | 0.11 | 95 | 1013.8 |
| 20260903151820 | 63 | 147 | 1.0 | 8.0 | 0.00 | 0.11 | 0.11 | 96 | 1013.8 |
| 20260903151319 | 63 | 172 | 1.0 | 6.0 | 0.00 | 0.11 | 0.11 | 95 | 1014.0 |
| 20260903151043 | 63 | 179 | 0.0 | 5.0 | 0.00 | 0.11 | 0.11 | 95 | 1014.0 |
| 20260903150320 | 63 | 170 | 1.0 | 10.0 | 0.00 | 0.11 | 0.11 | 95 | 1014.1 |
| 20260903150302 | 63 | 170 | 1.0 | 10.0 | 0.00 | 0.11 | 0.11 | 95 | 1014.2 |
| 20260903145316 | 63 | 193 | 0.0 | 0.0 | 0.00 | 0.11 | 0.11 | 95 | 1014.3 |
| 20260903144819 | 63 | 193 | 0.0 | 0.0 | 0.00 | 0.11 | 0.11 | 95 | 1014.3 |
| 20260903144537 | 63 | 193 | 0.0 | 0.0 | 0.01 | 0.11 | 0.11 | 95 | 1014.3 |
| 20260903143819 | 63 | 193 | 0.0 | 0.0 | 0.01 | 0.11 | 0.11 | 95 | 1014.3 |
| 20260903143313 | 63 | 193 | 0.0 | 0.0 | 0.01 | 0.11 | 0.11 | 95 | 1014.3 |
| 20260903142812 | 63 | 193 | 0.0 | 0.0 | 0.01 | 0.11 | 0.11 | 95 | 1014.4 |
| 20260903142310 | 63 | 193 | 0.0 | 0.0 | 0.01 | 0.11 | 0.11 | 95 | 1014.3 |
| 20260903141810 | 63 | 193 | 0.0 | 0.0 | 0.01 | 0.11 | 0.11 | 95 | 1014.3 |
| 20260903141308 | 63 | 193 | 0.0 | 0.0 | 0.01 | 0.11 | 0.11 | 95 | 1014.3 |
| 20260903141027 | 63 | 193 | 0.0 | 0.0 | 0.01 | 0.11 | 0.11 | 95 | 1014.3 |
| 20260903140304 | 62 | 193 | 0.0 | 0.0 | 0.01 | 0.11 | 0.11 | 95 | 1014.4 |
| 20260903135802 | 62 | 193 | 0.0 | 0.0 | 0.02 | 0.11 | 0.11 | 95 | 1014.5 |
| 20260903135527 | 62 | 193 | 0.0 | 0.0 | 0.02 | 0.11 | 0.11 | 95 | 1014.5 |
| 20260903134801 | 62 | 193 | 0.0 | 5.0 | 0.01 | 0.10 | 0.10 | 95 | 1014.5 |
| 20260903134301 | 62 | 193 | 0.0 | 5.0 | 0.01 | 0.10 | 0.10 | 95 | 1014.5 |
| 20260903133800 | 62 | 180 | 0.0 | 0.0 | 0.01 | 0.10 | 0.10 | 95 | 1014.4 |
| 20260903133300 | 62 | 180 | 0.0 | 7.0 | 0.01 | 0.10 | 0.10 | 95 | 1014.4 |
| 20260903132757 | 62 | 180 | 0.0 | 7.0 | 0.01 | 0.10 | 0.10 | 95 | 1014.5 |
| 20260903132517 | 62 | 180 | 0.0 | 1.0 | 0.01 | 0.10 | 0.10 | 95 | 1014.5 |
| 20260903131756 | 62 | 180 | 0.0 | 5.0 | 0.01 | 0.10 | 0.10 | 95 | 1014.5 |
| 20260903131257 | 62 | 180 | 1.0 | 6.0 | 0.01 | 0.10 | 0.10 | 94 | 1014.6 |
| 20260903130756 | 62 | 175 | 0.0 | 6.0 | 0.01 | 0.10 | 0.10 | 94 | 1014.6 |
| 20260903130253 | 62 | 178 | 0.0 | 3.0 | 0.01 | 0.10 | 0.10 | 94 | 1014.6 |
| 20260903125753 | 62 | 182 | 0.0 | 3.0 | 0.00 | 0.09 | 0.09 | 94 | 1014.8 |
| 20260903125251 | 62 | 181 | 0.0 | 5.0 | 0.00 | 0.09 | 0.09 | 94 | 1014.8 |
| 20260903124751 | 62 | 180 | 0.0 | 5.0 | 0.00 | 0.09 | 0.09 | 94 | 1014.9 |
| 20260903124256 | 62 | 170 | 0.0 | 3.0 | 0.00 | 0.09 | 0.09 | 94 | 1015.0 |
| 20260903123748 | 62 | 176 | 0.0 | 3.0 | 0.00 | 0.09 | 0.09 | 94 | 1015.0 |
| 20260903123249 | 62 | 173 | 0.0 | 5.0 | 0.00 | 0.09 | 0.09 | 94 | 1015.1 |
| 20260903122953 | 62 | 171 | 1.0 | 6.0 | 0.00 | 0.09 | 0.09 | 94 | 1015.2 |
| 20260903122836 | 62 | 173 | 0.0 | 5.0 | 0.00 | 0.09 | 0.09 | 94 | 1015.2 |
| 20260903121748 | 62 | 175 | 1.0 | 6.0 | 0.00 | 0.09 | 0.09 | 94 | 1015.5 |
| 20260903120955 | 62 | 190 | 0.0 | 4.0 | 0.00 | 0.09 | 0.09 | 94 | 1015.5 |
| 20260903120455 | 62 | 192 | 0.0 | 3.0 | 0.00 | 0.09 | 0.09 | 94 | 1015.2 |
| 20260903115952 | 62 | 192 | 0.0 | 4.0 | 0.00 | 0.09 | 0.09 | 94 | 1015.2 |
| 20260903115450 | 62 | 197 | 0.0 | 4.0 | 0.00 | 0.09 | 0.09 | 94 | 1015.5 |
| 20260903114945 | 62 | 171 | 0.0 | 4.0 | 0.00 | 0.09 | 0.09 | 93 | 1015.4 |
| 20260903114438 | 62 | 163 | 0.0 | 4.0 | 0.00 | 0.09 | 0.09 | 93 | 1015.4 |
| 20260903113933 | 61 | 162 | 0.0 | 4.0 | 0.00 | 0.09 | 0.09 | 93 | 1015.4 |
| 20260903113427 | 61 | 153 | 1.0 | 5.0 | 0.00 | 0.09 | 0.09 | 93 | 1015.3 |
| 20260903112921 | 61 | 142 | 1.0 | 6.0 | 0.00 | 0.09 | 0.09 | 93 | 1015.4 |
| 20260903112415 | 61 | 196 | 1.0 | 6.0 | 0.01 | 0.09 | 0.09 | 93 | 1015.5 |
| 20260903111910 | 61 | 195 | 0.0 | 6.0 | 0.01 | 0.09 | 0.09 | 93 | 1015.4 |
| 20260903111402 | 62 | 159 | 0.0 | 1.0 | 0.01 | 0.09 | 0.09 | 93 | 1015.4 |
| 20260903110856 | 61 | 159 | 0.0 | 2.0 | 0.01 | 0.09 | 0.09 | 93 | 1015.4 |
| 20260903110352 | 62 | 154 | 0.0 | 2.0 | 0.01 | 0.09 | 0.09 | 93 | 1015.5 |
| 20260903105846 | 62 | 161 | 0.0 | 7.0 | 0.01 | 0.09 | 0.09 | 93 | 1015.6 |
| 20260903105339 | 62 | 161 | 1.0 | 7.0 | 0.02 | 0.09 | 0.09 | 93 | 1015.6 |
| 20260903105057 | 62 | 162 | 1.0 | 6.0 | 0.06 | 0.09 | 0.09 | 93 | 1015.5 |
| 20260903104553 | 62 | 179 | 1.0 | 6.0 | 0.07 | 0.09 | 0.09 | 93 | 1015.6 |
| 20260903103821 | 63 | 180 | 1.0 | 6.0 | 0.08 | 0.09 | 0.09 | 94 | 1015.8 |
| 20260903103314 | 63 | 191 | 0.0 | 4.0 | 0.08 | 0.09 | 0.09 | 94 | 1015.8 |
| 20260903102808 | 63 | 177 | 0.0 | 4.0 | 0.08 | 0.08 | 0.08 | 94 | 1015.7 |
| 20260903102305 | 63 | 174 | 0.0 | 0.0 | 0.08 | 0.08 | 0.08 | 94 | 1015.7 |
| 20260903101759 | 63 | 175 | 0.0 | 0.0 | 0.08 | 0.08 | 0.08 | 93 | 1015.7 |
| 20260903101250 | 63 | 175 | 0.0 | 0.0 | 0.08 | 0.08 | 0.08 | 93 | 1015.7 |
| 20260903100744 | 63 | 175 | 0.0 | 0.0 | 0.08 | 0.08 | 0.08 | 93 | 1015.8 |
| 20260903100240 | 63 | 175 | 0.0 | 0.0 | 0.08 | 0.08 | 0.08 | 93 | 1015.7 |
| 20260903095732 | 64 | 175 | 0.0 | 0.0 | 0.08 | 0.08 | 0.08 | 93 | 1015.8 |
| 20260903095226 | 64 | 175 | 0.0 | 0.0 | 0.07 | 0.07 | 0.07 | 93 | 1015.9 |
| 20260903094721 | 64 | 175 | 0.0 | 0.0 | 0.03 | 0.03 | 0.03 | 93 | 1015.9 |
| 20260903094215 | 64 | 175 | 0.0 | 0.0 | 0.02 | 0.02 | 0.02 | 93 | 1016.0 |
| 20260903093708 | 64 | 175 | 0.0 | 0.0 | 0.01 | 0.01 | 0.01 | 93 | 1016.2 |
| 20260903093202 | 64 | 175 | 0.0 | 0.0 | 0.01 | 0.01 | 0.01 | 93 | 1016.3 |
| 20260903092657 | 64 | 175 | 0.0 | 0.0 | 0.00 | 0.00 | 0.00 | 93 | 1016.3 |
| 20260903092150 | 64 | 175 | 0.0 | 0.0 | 0.00 | 0.00 | 0.00 | 93 | 1016.3 |
| 20260903091646 | 64 | 175 | 0.0 | 0.0 | 0.00 | 0.00 | 0.00 | 93 | 1016.4 |
| 20260903091138 | 64 | 175 | 0.0 | 0.0 | 0.00 | 0.00 | 0.00 | 93 | 1016.4 |
| 20260903090632 | 64 | 172 | 0.0 | 0.0 | 0.00 | 0.00 | 0.00 | 93 | 1015.9 |
| 20260903090127 | 64 | 172 | 0.0 | 2.0 | 0.00 | 0.00 | 0.00 | 93 | 1015.7 |
| 20260903085620 | 64 | 172 | 0.0 | 2.0 | 0.00 | 0.00 | 0.00 | 93 | 1015.7 |
| 20260903085114 | 64 | 180 | 0.0 | 2.0 | 0.00 | 0.00 | 0.00 | 93 | 1015.7 |
| 20260903084832 | 64 | 182 | 0.0 | 5.0 | 0.00 | 0.00 | 0.00 | 94 | 1015.5 |
| 20260903084103 | 64 | 169 | 0.0 | 5.0 | 0.00 | 0.00 | 0.00 | 94 | 1015.6 |
| 20260903083603 | 64 | 167 | 0.0 | 4.0 | 0.00 | 0.00 | 0.00 | 94 | 1015.7 |
| 20260903083102 | 64 | 167 | 0.0 | 6.0 | 0.00 | 0.00 | 0.00 | 94 | 1015.9 |
| 20260903082603 | 64 | 158 | 1.0 | 6.0 | 0.00 | 0.00 | 0.00 | 95 | 1015.9 |
| 20260903082101 | 64 | 169 | 0.0 | 5.0 | 0.00 | 0.00 | 0.00 | 95 | 1015.8 |
| 20260903081600 | 63 | 154 | 0.0 | 5.0 | 0.00 | 0.00 | 0.00 | 95 | 1015.8 |
| 20260903081547 | 63 | 134 | 0.0 | 2.0 | 0.00 | 0.00 | 0.00 | 95 | 1015.8 |
| 20260903080601 | 63 | 143 | 0.0 | 0.0 | 0.00 | 0.00 | 0.00 | 95 | 1015.9 |
| 20260903080320 | 63 | 141 | 0.0 | 0.0 | 0.00 | 0.00 | 0.00 | 96 | 1015.8 |
| 20260903075559 | 63 | 141 | 0.0 | 0.0 | 0.00 | 0.00 | 0.00 | 95 | 1015.9 |
| 20260903075056 | 63 | 140 | 0.0 | 0.0 | 0.00 | 0.00 | 0.00 | 95 | 1016.1 |
| 20260903074556 | 62 | 140 | 0.0 | 0.0 | 0.00 | 0.00 | 0.00 | 95 | 1016.1 |
| 20260903074055 | 63 | 140 | 0.0 | 0.0 | 0.00 | 0.00 | 0.00 | 95 | 1016.1 |
| 20260903073555 | 62 | 140 | 0.0 | 0.0 | 0.00 | 0.00 | 0.00 | 96 | 1016.3 |
| 20260903073318 | 62 | 132 | 0.0 | 0.0 | 0.00 | 0.00 | 0.00 | 96 | 1016.2 |
| 20260903072550 | 62 | 132 | 0.0 | 0.0 | 0.00 | 0.00 | 0.00 | 96 | 1016.1 |
| 20260903072050 | 62 | 132 | 0.0 | 0.0 | 0.00 | 0.00 | 0.00 | 95 | 1016.2 |
| 20260903071551 | 62 | 131 | 0.0 | 0.0 | 0.00 | 0.00 | 0.00 | 95 | 1016.5 |
| 20260903071052 | 62 | 131 | 0.0 | 0.0 | 0.00 | 0.00 | 0.00 | 96 | 1016.7 |
| 20260903070550 | 62 | 131 | 0.0 | 0.0 | 0.00 | 0.00 | 0.00 | 96 | 1016.7 |
| 20260903070050 | 62 | 131 | 0.0 | 0.0 | 0.00 | 0.00 | 0.00 | 95 | 1016.8 |
| 20260903065551 | 62 | 131 | 0.0 | 0.0 | 0.00 | 0.00 | 0.00 | 95 | 1016.9 |
| 20260903065050 | 62 | 131 | 0.0 | 0.0 | 0.00 | 0.00 | 0.00 | 95 | 1017.1 |
| 20260903064550 | 62 | 131 | 0.0 | 0.0 | 0.00 | 0.00 | 0.00 | 95 | 1017.1 |
| 20260903064051 | 62 | 131 | 0.0 | 0.0 | 0.00 | 0.00 | 0.00 | 95 | 1017.3 |
| 20260903063551 | 62 | 131 | 0.0 | 0.0 | 0.00 | 0.00 | 0.00 | 95 | 1017.5 |
| 20260903063048 | 62 | 131 | 0.0 | 0.0 | 0.00 | 0.00 | 0.00 | 95 | 1017.5 |
| 20260903062548 | 62 | 131 | 0.0 | 0.0 | 0.00 | 0.00 | 0.00 | 95 | 1017.6 |
| 20260903062048 | 62 | 131 | 0.0 | 0.0 | 0.00 | 0.00 | 0.00 | 95 | 1017.5 |
| 20260903061549 | 62 | 131 | 0.0 | 0.0 | 0.00 | 0.00 | 0.00 | 95 | 1017.5 |
| 20260903061048 | 62 | 131 | 0.0 | 0.0 | 0.00 | 0.00 | 0.00 | 95 | 1017.7 |
| 20260903060549 | 62 | 131 | 0.0 | 0.0 | 0.00 | 0.00 | 0.00 | 95 | 1017.9 |
| 20260903060049 | 62 | 131 | 0.0 | 0.0 | 0.00 | 0.00 | 0.00 | 95 | 1017.8 |
| 20260903055544 | 62 | 131 | 0.0 | 0.0 | 0.00 | 0.00 | 0.00 | 95 | 1017.7 |
| 20260903055044 | 62 | 131 | 0.0 | 0.0 | 0.00 | 0.00 | 0.00 | 95 | 1017.8 |
| 20260903054544 | 62 | 131 | 0.0 | 0.0 | 0.00 | 0.00 | 0.00 | 95 | 1018.0 |
| 20260903054044 | 62 | 131 | 0.0 | 0.0 | 0.00 | 0.00 | 0.00 | 95 | 1018.2 |
| 20260903053545 | 62 | 131 | 0.0 | 0.0 | 0.00 | 0.00 | 0.00 | 95 | 1018.2 |
| 20260903053044 | 62 | 131 | 0.0 | 0.0 | 0.00 | 0.00 | 0.00 | 95 | 1018.2 |
| 20260903052544 | 62 | 131 | 0.0 | 0.0 | 0.00 | 0.00 | 0.00 | 95 | 1018.1 |
| 20260903052526 | 62 | 131 | 0.0 | 0.0 | 0.00 | 0.00 | 0.00 | 95 | 1018.0 |
| 20260903051545 | 61 | 131 | 0.0 | 0.0 | 0.00 | 0.00 | 0.00 | 95 | 1018.1 |
| 20260903051040 | 61 | 131 | 0.0 | 0.0 | 0.00 | 0.00 | 0.00 | 95 | 1018.2 |
| 20260903050541 | 61 | 131 | 0.0 | 0.0 | 0.00 | 0.00 | 0.00 | 95 | 1018.2 |
| 20260903050041 | 61 | 131 | 0.0 | 0.0 | 0.00 | 0.00 | 0.00 | 95 | 1018.2 |
| 20260903045540 | 62 | 131 | 0.0 | 0.0 | 0.00 | 0.00 | 0.00 | 95 | 1018.3 |
| 20260903045040 | 62 | 132 | 0.0 | 0.0 | 0.00 | 0.00 | 0.00 | 95 | 1018.3 |
| 20260903044542 | 62 | 132 | 0.0 | 0.0 | 0.00 | 0.00 | 0.00 | 95 | 1018.3 |
| 20260903044041 | 62 | 132 | 0.0 | 0.0 | 0.00 | 0.00 | 0.00 | 95 | 1018.4 |
| 20260903043540 | 62 | 132 | 0.0 | 0.0 | 0.00 | 0.00 | 0.00 | 95 | 1018.5 |
| 20260903043040 | 62 | 132 | 0.0 | 0.0 | 0.00 | 0.00 | 0.00 | 95 | 1018.7 |
| 20260903043021 | 62 | 132 | 0.0 | 0.0 | 0.00 | 0.00 | 0.00 | 95 | 1018.7 |
| 20260903042041 | 62 | 132 | 0.0 | 0.0 | 0.00 | 0.00 | 0.00 | 95 | 1018.8 |
| 20260903041540 | 62 | 132 | 0.0 | 0.0 | 0.00 | 0.00 | 0.00 | 95 | 1018.8 |
| 20260903041303 | 62 | 132 | 0.0 | 0.0 | 0.00 | 0.00 | 0.00 | 95 | 1018.8 |
| 20260903040540 | 62 | 132 | 0.0 | 0.0 | 0.00 | 0.00 | 0.00 | 95 | 1019.0 |
| 20260903040040 | 62 | 132 | 0.0 | 0.0 | 0.00 | 0.00 | 0.00 | 95 | 1019.0 |
| 20260903035541 | 62 | 132 | 0.0 | 0.0 | 0.00 | 0.00 | 0.00 | 95 | 1019.0 |
| 20260903035038 | 62 | 132 | 0.0 | 0.0 | 0.00 | 0.00 | 0.00 | 95 | 1019.1 |
| 20260903034802 | 62 | 132 | 0.0 | 0.0 | 0.00 | 0.00 | 0.00 | 94 | 1019.0 |
| 20260903034033 | 62 | 132 | 0.0 | 0.0 | 0.00 | 0.00 | 0.00 | 94 | 1019.1 |
| 20260903033525 | 62 | 132 | 0.0 | 0.0 | 0.00 | 0.00 | 0.00 | 94 | 1019.1 |
| 20260903033019 | 62 | 132 | 0.0 | 0.0 | 0.00 | 0.00 | 0.00 | 94 | 1019.2 |
| 20260903032514 | 62 | 132 | 0.0 | 0.0 | 0.00 | 0.00 | 0.00 | 94 | 1019.2 |
| 20260903032007 | 62 | 132 | 0.0 | 0.0 | 0.00 | 0.00 | 0.00 | 94 | 1019.2 |
| 20260903031501 | 62 | 132 | 0.0 | 0.0 | 0.00 | 0.00 | 0.00 | 94 | 1019.2 |
| 20260903030954 | 62 | 132 | 0.0 | 0.0 | 0.00 | 0.00 | 0.00 | 94 | 1019.4 |
| 20260903030448 | 62 | 132 | 0.0 | 0.0 | 0.00 | 0.00 | 0.00 | 94 | 1019.3 |
| 20260903030206 | 62 | 132 | 0.0 | 0.0 | 0.00 | 0.00 | 0.00 | 94 | 1019.1 |
| 20260903025436 | 62 | 132 | 0.0 | 0.0 | 0.00 | 0.00 | 0.00 | 94 | 1019.1 |
| 20260903024930 | 62 | 132 | 0.0 | 0.0 | 0.00 | 0.00 | 0.00 | 94 | 1019.3 |
| 20260903024424 | 62 | 132 | 0.0 | 0.0 | 0.00 | 0.00 | 0.00 | 94 | 1019.3 |
| 20260903023919 | 62 | 132 | 0.0 | 0.0 | 0.00 | 0.00 | 0.00 | 94 | 1019.5 |
| 20260903023412 | 62 | 132 | 0.0 | 0.0 | 0.00 | 0.00 | 0.00 | 94 | 1019.6 |
| 20260903022907 | 62 | 132 | 0.0 | 0.0 | 0.00 | 0.00 | 0.00 | 94 | 1019.7 |
| 20260903022623 | 62 | 132 | 0.0 | 0.0 | 0.00 | 0.00 | 0.00 | 94 | 1019.6 |
| 20260903022115 | 62 | 132 | 0.0 | 0.0 | 0.00 | 0.00 | 0.00 | 94 | 1019.6 |
| 20260903021349 | 62 | 132 | 0.0 | 0.0 | 0.00 | 0.00 | 0.00 | 94 | 1019.7 |
| 20260903020843 | 62 | 132 | 0.0 | 0.0 | 0.00 | 0.00 | 0.00 | 94 | 1019.7 |
| 20260903020337 | 62 | 132 | 0.0 | 0.0 | 0.00 | 0.00 | 0.00 | 94 | 1019.6 |
| 20260903015830 | 62 | 132 | 0.0 | 0.0 | 0.00 | 0.00 | 0.00 | 94 | 1019.6 |
| 20260903015324 | 62 | 132 | 0.0 | 0.0 | 0.00 | 0.00 | 0.00 | 94 | 1019.8 |
| 20260903015045 | 62 | 132 | 0.0 | 0.0 | 0.00 | 0.00 | 0.00 | 94 | 1019.8 |
| 20260903014313 | 62 | 132 | 0.0 | 0.0 | 0.00 | 0.00 | 0.00 | 94 | 1019.6 |
| 20260903013806 | 62 | 132 | 0.0 | 0.0 | 0.00 | 0.00 | 0.00 | 94 | 1019.7 |
| 20260903013301 | 62 | 132 | 0.0 | 0.0 | 0.00 | 0.00 | 0.00 | 94 | 1019.6 |
| 20260903012755 | 62 | 132 | 0.0 | 0.0 | 0.00 | 0.00 | 0.00 | 94 | 1019.7 |
| 20260903012248 | 62 | 132 | 0.0 | 0.0 | 0.00 | 0.00 | 0.00 | 93 | 1019.7 |
| 20260903011743 | 62 | 132 | 0.0 | 0.0 | 0.00 | 0.00 | 0.00 | 93 | 1019.6 |
| 20260903011456 | 62 | 132 | 0.0 | 0.0 | 0.00 | 0.00 | 0.00 | 93 | 1019.6 |
| 20260903010955 | 62 | 132 | 0.0 | 0.0 | 0.00 | 0.00 | 0.00 | 93 | 1019.8 |
| 20260903010225 | 62 | 132 | 0.0 | 0.0 | 0.00 | 0.00 | 0.00 | 93 | 1019.6 |
| 20260903005719 | 62 | 132 | 0.0 | 0.0 | 0.00 | 0.00 | 0.00 | 93 | 1019.4 |
| 20260903005438 | 62 | 132 | 0.0 | 0.0 | 0.00 | 0.00 | 0.00 | 93 | 1019.4 |
| 20260903004708 | 62 | 132 | 0.0 | 0.0 | 0.00 | 0.00 | 0.00 | 93 | 1019.5 |
| 20260903004201 | 62 | 132 | 0.0 | 0.0 | 0.00 | 0.00 | 0.00 | 93 | 1019.7 |
| 20260903004133 | 62 | 132 | 0.0 | 0.0 | 0.00 | 0.00 | 0.00 | 93 | 1019.8 |
| 20260903003408 | 62 | 132 | 0.0 | 0.0 | 0.00 | 0.00 | 0.00 | 93 | 1019.7 |
| 20260903002644 | 62 | 128 | 0.0 | 0.0 | 0.00 | 0.00 | 0.00 | 93 | 1019.6 |
| 20260903002137 | 62 | 128 | 0.0 | 0.0 | 0.00 | 0.00 | 0.00 | 93 | 1019.6 |
| 20260903001631 | 62 | 127 | 0.0 | 0.0 | 0.00 | 0.00 | 0.00 | 93 | 1019.7 |
| 20260903001124 | 62 | 127 | 0.0 | 0.0 | 0.00 | 0.00 | 0.00 | 93 | 1019.8 |
| 20260903000619 | 62 | 127 | 0.0 | 0.0 | 0.00 | 0.00 | 0.00 | 93 | 1019.8 |
| 20260903000113 | 62 | 127 | 0.0 | 0.0 | 0.00 | 0.00 | 0.00 | 93 | 1019.8 |
| 20260902235607 | 62 | 127 | 0.0 | 0.0 | 0.00 | 0.00 | 0.00 | 93 | 1020.1 |
| 20260902235102 | 62 | 127 | 0.0 | 0.0 | 0.00 | 0.00 | 0.00 | 93 | 1020.1 |
| 20260902234554 | 62 | 127 | 0.0 | 0.0 | 0.00 | 0.00 | 0.00 | 93 | 1020.2 |
| 20260902234049 | 62 | 127 | 0.0 | 0.0 | 0.00 | 0.00 | 0.00 | 93 | 1020.4 |
| 20260902233543 | 62 | 127 | 0.0 | 0.0 | 0.00 | 0.00 | 0.00 | 93 | 1020.4 |
| 20260902233037 | 62 | 127 | 0.0 | 0.0 | 0.00 | 0.00 | 0.00 | 93 | 1020.5 |
| 20260902232531 | 62 | 127 | 0.0 | 0.0 | 0.00 | 0.00 | 0.00 | 93 | 1020.5 |
| 20260902232025 | 62 | 127 | 0.0 | 0.0 | 0.00 | 0.00 | 0.00 | 93 | 1020.4 |
| 20260902231518 | 62 | 127 | 0.0 | 0.0 | 0.00 | 0.00 | 0.00 | 93 | 1020.3 |
| 20260902231012 | 62 | 128 | 0.0 | 0.0 | 0.00 | 0.00 | 0.00 | 92 | 1020.3 |
| 20260902230506 | 62 | 127 | 0.0 | 0.0 | 0.00 | 0.00 | 0.00 | 92 | 1020.3 |
| 20260902230005 | 62 | 127 | 0.0 | 0.0 | 0.00 | 0.00 | 0.00 | 92 | 1020.3 |
| 20260902225724 | 62 | 127 | 0.0 | 0.0 | 0.00 | 0.00 | 0.00 | 92 | 1020.5 |
| 20260902225226 | 62 | 127 | 0.0 | 0.0 | 0.00 | 0.00 | 0.00 | 92 | 1020.7 |
| 20260902224504 | 62 | 127 | 0.0 | 0.0 | 0.00 | 0.00 | 0.00 | 92 | 1020.8 |
| 20260902224222 | 62 | 127 | 0.0 | 0.0 | 0.00 | 0.00 | 0.00 | 92 | 1020.8 |
| 20260902223501 | 62 | 127 | 0.0 | 0.0 | 0.00 | 0.00 | 0.00 | 92 | 1020.8 |
| 20260902223001 | 62 | 127 | 0.0 | 0.0 | 0.00 | 0.00 | 0.00 | 92 | 1020.9 |
| 20260902222459 | 62 | 126 | 0.0 | 0.0 | 0.00 | 0.00 | 0.00 | 92 | 1020.8 |
| 20260902221957 | 62 | 126 | 0.0 | 0.0 | 0.00 | 0.00 | 0.00 | 92 | 1020.9 |
| 20260902221458 | 62 | 126 | 0.0 | 0.0 | 0.00 | 0.00 | 0.00 | 92 | 1020.9 |
| 20260902220958 | 62 | 126 | 0.0 | 0.0 | 0.00 | 0.00 | 0.00 | 92 | 1020.8 |
| 20260902220457 | 62 | 126 | 0.0 | 3.0 | 0.00 | 0.00 | 0.00 | 92 | 1020.9 |
| 20260902215956 | 62 | 126 | 0.0 | 3.0 | 0.00 | 0.00 | 0.00 | 92 | 1020.8 |
| 20260902215455 | 62 | 86 | 0.0 | 0.0 | 0.00 | 0.00 | 0.00 | 92 | 1020.8 |
| 20260902214953 | 62 | 86 | 0.0 | 0.0 | 0.00 | 0.00 | 0.00 | 91 | 1020.9 |
| 20260902214454 | 62 | 86 | 0.0 | 0.0 | 0.00 | 0.00 | 0.00 | 92 | 1021.0 |
| 20260902214212 | 62 | 86 | 0.0 | 0.0 | 0.00 | 0.00 | 0.00 | 92 | 1020.8 |
| 20260902213453 | 62 | 86 | 0.0 | 0.0 | 0.00 | 0.00 | 0.00 | 92 | 1020.8 |